{"data":{"norad_id":81775,"intl_designator":"","name":"UNKNOWN","alt_names":[],"object_type":"UNKNOWN","status":"UNKNOWN","operator":null,"country":null,"launch_date":null,"launch_site_code":null,"launch_vehicle":null,"mission":null,"orbit_class":"UNKNOWN","rcs_meters":null,"size_class":null,"mass_kg":null,"dimensions":null,"purposes":[],"wikipedia_slug":null,"has_3d_model":false,"image_url":null,"decayed_at":null,"tle_current":{"epoch":"2026-09-18T12:23:24.009504Z","epoch_age_seconds":186137,"freshness":"STALE","line1":"1 81775U          26261.51625011  .00003168  00000+0  91920-3 0  9997","line2":"2 81775  82.9191 351.6853 0018655  97.9573 262.3739 14.44059213665615","mean_motion":14.44059213,"eccentricity":0.0018655,"inclination_deg":82.9191,"raan_deg":351.6853,"arg_perigee_deg":97.9573,"mean_anomaly_deg":262.3739,"bstar":0.0009192,"rev_number":66561,"period_min":99.718902593228,"perigee_km":731.82981809478,"apogee_km":758.40668343538,"semimajor_km":7123.2552507651,"source":"CELESTRAK","updated_at":"2026-09-20T09:00:32.394848Z"}}}